Location: Dob?e?
(49.9411°N, 15.1496°E)
Time: 06:03:45
(UTC+00:00)

RS-44 - Visible Passes

Search period start: 26 October 2021 00:00
Search period end: 05 November 2021 00:00
Orbit: 1174 x 1511 km, 82.5° (Epoch: 25 October)

Date Brightness Start Highest point End Pass type
(mag) Time Alt. Az. Time Alt. Az. Time Alt. Az.
26 Oct ? 01:13:09 16° NNW 01:13:09 16° NNW 01:15:15 10° N visible
26 Oct ? 21:51:43 14° NNE 21:51:43 14° NNE 21:52:38 10° NNE visible
26 Oct ? 23:44:19 20° N 23:44:19 20° N 23:46:27 10° N visible
27 Oct ? 01:36:54 12° NNW 01:36:54 12° NNW 01:38:07 10° NNW visible
27 Oct ? 22:15:28 16° NNE 22:15:28 16° NNE 22:16:41 10° NNE visible
28 Oct ? 00:08:03 18° N 00:08:03 18° N 00:10:03 10° N visible
28 Oct ? 22:39:12 17° NNE 22:39:12 17° NNE 22:40:36 10° NNE visible
29 Oct ? 00:31:48 16° NNW 00:31:48 16° NNW 00:33:29 10° N visible
29 Oct ? 23:02:56 17° N 23:02:56 17° N 23:04:22 10° N visible
30 Oct ? 00:55:32 13° NNW 00:55:32 13° NNW 00:56:40 10° NNW visible
30 Oct ? 21:34:04 11° NNE 21:34:04 11° NNE 21:34:21 10° NNE visible
30 Oct ? 23:26:39 16° N 23:26:39 16° N 23:28:02 10° N visible
31 Oct ? 21:57:47 13° NNE 21:57:47 13° NNE 21:58:22 10° NNE visible
31 Oct ? 23:50:22 15° N 23:50:22 15° N 23:51:35 10° N visible
01 Nov ? 22:21:29 14° N 22:21:29 14° N 22:22:14 10° N visible
02 Nov ? 00:14:05 13° NNW 00:14:05 13° NNW 00:14:57 10° N visible
02 Nov ? 22:45:12 14° N 22:45:12 14° N 22:45:59 10° N visible
03 Nov ? 00:37:47 11° NNW 00:37:47 11° NNW 00:38:00 10° NNW visible
03 Nov ? 23:08:53 13° N 23:08:53 13° N 23:09:37 10° N visible
04 Nov ? 21:40:00 10° NNE 21:40:00 10° NNE 21:40:02 10° NNE visible
04 Nov ? 23:32:35 12° N 23:32:35 12° N 23:33:07 10° N visible
